User: anonymous   Login
Location: Unspecified
(0.0000°N, 0.0000°E)
Time: 21:56:44
(UTC+00:00)
Language:

TBA - TO BE ASSIGNED - Orbit

View from above orbital plane
View from above orbital plane
View from above satellite
View from above satellite

Ground track
Ground track

The orbit is defined by the following mean orbital elements,

1 68122U          26145.33793480 +.00000000 +00000-0 +96854-3 0 00002
2 68122  97.2847 106.0276 0000651  87.2772 272.8545 15.33463853    09
Epoch (UTC): 25 May 2026 08:06:37
Eccentricity: 0.0000651
inclination: 97.2847°
perigee height: 465 km
apogee height: 466 km
right ascension of ascending node: 106.0276°
argument of perigee: 87.2772°
revolutions per day: 15.33463853
mean anomaly at epoch: 272.8545°

The dashed part of the orbit path shows where the satellite is in the earth's shadow,  

DLR